Theta_e
297 295 292 295 298 297 297 295 293 293 291 292 295 296 298 300 296 298 299 299 300 301 303 302 303 305 304 301 298 297 294 293 293 294 294 294 293 294 294 294 294 294 294 295
293 290 296 297 296 295 295 293 291 289 289 291 293 292 296 297 297 299 299 299 300 300 299 300 301 303 303 300 299 297 295 293 294 294 294 294 294 293 293 293 293 293 293 294
290 291 294 293 292 293 293 292 291 290 288 289 289 291 294 296 295 296 299 301 301 300 299 300 300 302 303 301 299 297 296 294 293 294 292 292 292 292 292 292 293 292 293 293
292 291 292 292 292 295 290 292 291 288 289 287 288 286 292 293 292 291 295 296 298 299 300 300 300 301 303 302 301 298 296 294 294 294 293 292 292 291 292 292 292 292 292 292
289 289 290 291 292 293 290 291 290 288 288 287 287 286 291 288 290 293 294 295 297 299 299 299 300 301 303 303 300 298 296 295 294 295 294 293 291 292 292 291 291 291 292 292
289 291 291 292 289 294 290 290 289 289 288 284 287 287 290 291 292 294 296 296 296 296 297 298 300 301 302 303 300 298 296 295 295 295 294 293 292 291 290 290 291 291 292 292
287 288 290 290 288 290 291 290 284 283 283 282 283 283 289 295 293 294 296 297 297 295 295 296 297 299 301 301 299 298 296 295 295 295 295 293 292 292 292 291 291 290 291 291
284 281 287 290 290 288 289 291 286 280 278 282 282 282 288 293 292 294 296 296 296 294 294 295 297 299 300 300 300 298 296 296 295 295 295 293 293 292 292 291 291 291 291 291
284 283 288 288 289 291 288 285 291 282 277 281 285 287 292 292 292 292 294 294 294 295 295 295 298 299 300 301 300 299 297 297 295 295 294 292 292 291 290 290 291 291 291 290
287 282 286 288 290 290 287 291 284 285 280 280 283 283 288 291 291 292 293 294 295 296 296 296 297 299 300 301 301 300 298 297 296 295 294 292 292 291 291 290 289 290 290 290
289 288 283 287 286 286 286 286 286 287 286 283 281 286 293 293 294 294 295 295 296 295 296 297 297 298 300 301 300 299 298 297 295 294 293 292 291 290 290 289 289 289 290 289
290 286 282 284 287 288 287 287 288 285 281 284 283 287 291 292 293 293 296 295 296 297 297 297 297 297 298 299 299 298 297 296 295 294 292 291 290 289 289 289 288 289 288 289
290 287 280 280 285 285 285 287 289 290 287 283 282 287 290 291 292 293 294 294 295 295 296 296 296 296 297 298 298 298 297 296 294 293 291 290 289 289 288 288 288 288 288 288
293 287 285 283 285 287 283 285 286 287 284 285 285 289 291 293 293 292 292 295 296 295 295 296 296 296 297 297 297 297 296 295 293 292 290 289 289 289 289 288 287 287 287 287
292 285 287 289 286 287 286 286 285 284 287 285 288 288 293 295 295 295 295 294 294 294 294 295 295 296 296 296 296 296 295 294 292 291 289 289 289 289 288 287 287 287 286 286
292 287 286 282 285 285 283 287 287 287 288 289 289 288 296 295 293 293 293 292 292 293 294 295 296 295 295 295 296 295 295 293 292 290 289 289 288 287 287 286 286 286 286 286
287 286 285 281 285 286 283 285 286 287 289 289 286 290 292 291 291 294 294 293 294 295 295 294 294 295 295 296 296 295 294 293 291 290 289 288 288 287 286 286 285 285 285 285
286 285 285 283 284 276 287 294 290 287 289 291 291 293 295 294 294 295 297 296 295 296 295 295 295 296 296 296 295 295 294 291 290 290 289 288 288 287 286 285 285 285 285 284
291 286 283 281 282 286 289 290 289 286 287 291 291 293 293 292 292 294 296 297 297 297 297 297 298 297 297 296 296 293 291 291 290 290 289 288 287 286 285 285 285 285 284 284
289 289 285 283 281 279 288 289 293 293 286 298 295 294 293 291 288 294 296 295 296 296 296 296 297 296 296 295 294 293 292 291 290 290 289 288 287 286 285 285 284 285 285 283
282 284 281 283 283 286 290 288 293 285 288 289 291 295 297 291 297 297 293 293 295 295 294 295 295 294 295 294 294 293 291 290 291 289 288 287 286 286 286 286 284 284 283 283
283 282 282 284 282 281 288 287 288 288 288 288 290 291 291 294 291 291 292 291 292 291 292 293 292 291 292 293 293 291 291 291 289 289 287 286 285 285 285 285 283 283 283 283
282 287 285 286 286 285 287 287 288 287 287 288 289 290 290 289 289 289 289 290 291 291 291 291 291 289 290 291 292 290 289 289 288 286 285 285 284 284 285 284 284 283 283 284
284 285 285 285 285 285 286 287 286 287 286 287 288 289 289 288 288 288 288 288 288 289 289 289 289 288 287 288 288 289 287 287 286 285 284 284 284 284 284 284 285 285 284 283
284 286 284 284 286 284 286 287 287 286 286 286 287 287 288 288 287 287 287 287 287 286 287 288 288 286 284 286 286 285 285 286 285 285 283 284 285 285 284 284 284 284 285 285
284 284 285 285 287 289 289 287 286 286 286 285 286 286 287 288 286 287 286 286 285 284 285 285 284 284 283 284 284 284 285 286 285 284 284 284 284 284 284 283 283 282 284 283
Wind_Speed
2 9 17 19 15 3 9 6 10 3 1 4 12 17 17 11 10 11 12 13 14 15 12 12 13 13 12 11 11 11 11 10 7 6 5 4 4 4 4 4 5 5 4 3
6 16 11 9 9 6 8 8 5 1 1 5 6 17 16 14 14 18 16 16 16 15 13 14 14 14 14 14 13 12 11 11 8 5 3 2 4 3 4 4 5 5 4 4
10 1 12 9 7 10 7 11 7 2 2 2 7 14 13 9 13 13 17 15 16 18 18 17 17 17 16 16 15 13 12 11 9 6 6 5 5 4 3 3 4 4 5 5
8 3 13 10 13 14 14 6 6 6 4 4 2 7 6 7 13 13 17 17 17 18 17 17 18 19 19 16 14 13 12 11 9 8 6 7 3 4 3 4 4 4 5 5
7 10 12 14 9 10 3 6 7 3 3 3 5 6 4 1 9 18 18 19 19 19 19 20 20 20 18 16 14 13 13 12 11 9 6 5 5 4 5 5 6 5 5 5
3 1 2 4 4 6 14 8 6 3 1 6 8 8 5 7 7 5 9 18 18 17 17 16 16 16 16 15 14 13 14 13 12 10 8 7 7 7 7 6 6 5 4 4
2 3 1 2 9 6 6 11 3 4 5 8 1 6 13 8 6 4 5 11 15 16 17 17 18 18 17 18 16 14 15 14 13 12 9 9 7 8 8 8 6 7 5 4
12 9 10 6 4 11 16 15 7 9 6 4 1 10 9 5 3 7 2 3 10 12 13 16 17 17 18 19 18 16 16 14 14 12 11 9 8 5 5 7 6 4 4 4
10 7 1 1 1 6 9 12 4 7 1 2 5 7 14 9 12 6 8 7 11 12 12 14 14 16 17 18 18 18 16 14 13 12 10 9 8 8 7 7 6 5 5 5
6 4 1 1 1 1 4 11 4 2 6 6 5 6 8 4 10 12 12 12 12 12 12 11 12 14 14 16 16 16 15 15 13 12 10 8 8 8 8 8 8 7 7 7
8 3 3 4 10 12 6 8 4 3 6 5 3 6 9 12 5 14 15 14 14 14 13 12 12 12 13 14 15 15 14 14 13 11 10 9 9 9 9 8 8 8 8 7
4 5 6 12 2 2 3 8 17 9 7 6 1 9 2 5 6 4 11 13 13 13 12 11 12 13 14 15 15 15 14 13 12 11 10 10 10 10 10 9 9 9 8 7
10 6 5 3 5 3 10 9 12 10 3 10 9 7 1 3 4 4 7 12 12 13 12 11 12 13 14 15 15 15 14 13 12 11 11 10 10 10 10 9 9 9 8 8
7 3 14 17 8 10 12 13 9 15 10 13 21 12 3 8 7 6 8 12 14 13 14 13 13 14 15 15 15 15 14 13 13 12 12 11 11 11 10 10 10 10 9 9
6 9 10 13 3 7 6 20 20 20 30 16 22 19 13 10 11 9 8 10 13 15 15 15 15 15 15 16 15 14 14 14 13 13 12 11 11 10 10 10 10 10 9 8
3 4 6 5 4 6 6 17 25 31 27 30 14 16 14 2 2 8 12 14 14 15 16 16 16 16 16 17 16 15 15 14 14 13 13 11 11 11 10 10 10 10 10 10
9 8 5 15 8 3 10 25 23 23 28 29 26 27 7 8 10 11 13 16 18 18 19 17 18 17 16 16 15 16 15 14 14 13 12 12 12 11 11 10 10 10 10 9
10 16 8 6 6 12 21 10 21 25 18 28 29 14 18 18 10 8 14 18 19 18 18 16 15 15 15 14 14 14 13 14 13 13 13 12 12 11 11 10 10 10 9 9
15 13 6 7 11 8 14 11 13 15 21 18 28 25 12 1 2 11 15 16 20 20 15 14 14 14 14 15 14 14 14 13 13 13 13 13 13 12 11 11 10 9 8 8
12 12 9 8 7 12 7 5 12 9 27 21 23 22 19 11 13 18 16 16 11 14 14 14 14 13 13 14 15 14 14 13 14 13 11 11 10 11 12 10 9 7 7 6
8 5 14 10 6 9 3 8 11 12 5 2 3 15 20 21 25 5 11 13 14 14 16 15 15 12 12 13 14 14 13 13 10 9 10 9 10 9 9 9 6 7 7 5
13 10 6 5 5 13 5 5 15 2 3 2 5 7 10 16 2 2 8 13 16 17 16 15 13 11 10 11 12 12 12 9 10 10 10 9 8 6 6 7 6 6 7 6
6 6 9 12 6 0 4 3 2 1 3 4 6 6 7 7 7 8 9 11 14 15 12 11 13 12 10 9 10 11 9 10 10 9 8 7 7 6 6 8 7 6 5 5
4 2 3 3 5 4 5 4 4 1 3 6 7 9 5 4 9 9 10 11 12 11 11 10 12 11 10 7 6 9 10 9 10 9 8 6 7 6 5 4 4 5 5 5
1 7 5 3 2 3 6 6 3 2 3 4 4 4 1 8 8 9 11 12 11 11 10 9 10 10 9 8 9 9 9 10 9 8 7 7 5 5 6 3 4 4 3 4
2 3 3 2 1 2 4 6 2 2 4 3 2 3 4 9 11 12 10 10 11 12 11 10 10 10 8 9 9 7 6 8 10 8 6 6 6 5 4 5 4 3 3 6
Wind_Direction
153 190 204 191 200 218 197 197 212 176 112 234 247 262 257 236 225 224 217 211 206 207 194 185 183 178 172 173 173 172 165 164 163 158 148 144 118 110 96 86 79 78 79 96
153 219 199 150 158 150 177 193 206 168 131 231 272 273 268 244 236 226 218 213 210 198 191 187 182 180 182 180 183 178 177 174 179 167 134 121 135 102 92 96 83 71 78 72
186 306 139 151 162 176 199 209 189 265 146 232 296 271 240 231 229 227 225 220 207 200 193 186 185 187 185 187 186 184 180 177 175 147 131 119 116 123 143 127 104 71 76 76
221 125 155 163 191 196 216 191 139 139 197 264 281 287 250 225 232 218 219 210 208 199 197 188 187 189 191 190 184 183 178 177 173 171 171 176 169 155 125 129 114 99 84 85
181 172 169 182 193 187 182 139 138 130 184 308 191 261 258 132 245 232 216 213 207 200 193 190 191 190 189 182 181 181 178 178 177 183 185 177 157 124 136 136 130 113 103 92
99 355 216 176 80 182 138 114 76 80 225 249 222 228 256 216 227 227 217 209 202 194 193 191 188 182 183 178 179 179 179 181 181 187 186 187 169 156 155 158 152 147 139 128
124 166 160 171 102 126 176 159 135 222 206 240 118 210 255 244 231 246 250 210 197 189 190 186 180 181 180 180 179 178 182 184 185 189 188 187 178 172 172 166 167 161 155 151
174 208 173 170 193 178 188 187 167 197 199 213 127 227 246 250 294 238 218 230 183 187 190 189 185 183 181 181 179 179 184 182 184 187 187 184 176 177 173 173 165 168 158 140
179 212 54 60 154 171 177 214 126 107 54 271 201 257 275 246 239 201 215 188 187 187 185 186 182 182 181 181 180 181 181 182 184 184 178 179 178 176 171 165 166 159 144 143
182 141 283 65 215 140 233 138 160 205 180 231 210 266 251 255 226 199 202 204 192 182 180 179 180 183 183 181 177 179 182 182 180 177 177 176 175 175 169 166 169 166 154 156
155 113 126 173 215 177 165 187 209 242 213 216 248 239 216 237 209 207 201 195 191 184 181 176 177 180 180 177 175 177 179 176 175 176 172 168 171 173 169 173 170 167 159 161
171 108 162 197 99 302 280 220 197 205 189 248 320 248 170 254 264 241 197 188 187 187 180 176 174 171 174 177 176 176 177 178 177 175 171 174 169 172 175 174 169 164 164 165
178 193 131 133 255 198 223 198 226 241 26 200 205 220 88 253 251 214 205 182 180 182 173 171 172 177 179 178 176 177 177 177 172 170 173 172 175 177 177 171 166 167 165 169
157 167 221 216 215 135 203 206 208 207 220 209 230 237 242 237 227 201 200 189 181 184 178 177 178 180 180 180 177 176 176 174 170 171 176 177 179 179 176 169 168 171 174 174
173 228 221 255 269 191 210 191 193 208 226 216 235 229 217 226 216 209 193 180 182 188 188 185 182 182 181 179 179 178 175 174 172 174 178 181 175 174 170 171 173 171 174 177
134 250 184 237 195 192 235 215 202 213 221 236 245 262 221 232 128 185 190 183 197 200 195 191 186 183 183 183 182 178 177 175 173 177 180 173 172 172 175 173 175 175 178 179
184 187 173 241 160 111 265 217 206 218 223 224 227 231 189 239 232 207 198 193 199 202 196 194 189 186 184 184 180 182 176 168 176 178 176 175 174 176 178 176 178 184 185 178
190 215 223 237 138 218 253 191 199 213 219 223 240 234 225 227 224 219 208 196 198 197 197 189 186 188 184 177 179 172 169 170 175 180 178 175 175 177 176 179 186 186 183 187
213 190 192 205 214 287 268 209 187 190 242 228 234 231 219 163 32 250 216 207 204 195 188 182 182 178 172 174 170 163 166 168 174 182 180 176 178 175 178 186 187 187 185 187
203 215 213 174 218 214 283 179 185 126 262 228 223 232 219 174 230 232 198 197 187 171 167 164 166 160 166 167 161 161 169 173 183 179 174 172 171 176 183 185 183 183 192 187
173 184 211 217 232 268 180 156 159 172 256 348 288 248 228 206 228 246 149 177 175 164 158 152 154 159 161 155 160 165 167 182 172 155 152 158 167 172 180 174 170 177 179 170
176 168 187 196 222 256 142 133 188 350 330 297 286 276 250 228 317 181 175 157 156 150 146 142 135 132 137 149 155 155 170 151 144 149 152 153 156 157 155 158 164 171 177 181
208 189 175 195 208 256 218 338 327 310 295 315 306 299 262 164 165 159 152 145 143 141 129 127 128 127 135 145 156 150 145 141 138 135 133 137 139 147 159 167 169 169 181 190
226 210 164 144 181 221 222 250 254 271 284 307 297 294 243 178 147 137 129 127 123 119 117 118 120 123 126 122 109 121 128 127 133 131 135 137 147 152 155 161 165 172 183 193
239 154 154 275 256 272 237 224 264 291 318 328 357 324 176 128 121 134 128 120 114 108 107 113 117 116 117 120 117 118 125 134 131 130 133 139 140 156 162 165 177 188 195 193
227 157 173 194 311 321 66 18 55 327 325 19 65 52 71 125 123 118 101 101 111 110 109 104 106 114 114 119 103 102 117 133 132 130 135 149 151 159 166 167 172 197 232 218